Home > Time Zones > World Clock > Weather > U.S.A. > Erie > Past weeks

Flag for U.S.A. Weather past 2 weeks in Erie, Pennsylvania, U.S.A.

Now
71 °F

Passing clouds.


Feels Like: 75 °F
Forecast: 71 / 86 °F
Wind: No wind

Location: Erie International Airport

Current Time: Jul 29, 2015 at 3:12:16 AM

Latest Report: Jul 29, 2015 at 2:51 AM


Visibility: 10 mi

Pressure: 29.98 "Hg

Humidity: 68%

Dew point: 60 °F

Location of ErieLocation

Historic Weather in Erie — Graph

°F

Erie temperature yesterday

Maximum temperature yesterday: 88 °F (at 3:51 PM)
Minimum temperature yesterday: 66 °F (at 2:51 AM)
Average temperature yesterday: 78 °F

Past Weeks' High & Low Weather Summary

 TemperatureHumidityPressure
High88 °F (Jul 28, 3:51 PM)90% (Jul 20, 6:51 AM)30.12 "Hg (Jul 20, 6:51 AM)
Low51 °F (Jul 16, 2:51 AM)36% (Jul 23, 5:51 PM)29.49 "Hg (Jul 14, 3:51 PM)
Average73 °F64%29.89 "Hg
* Reported Jul 14 1:51 AM — Jul 29 1:51 AM, Erie, Weather by CustomWeather, © 2015

Note: Actual official high and low records may vary slightly from our data, if they occured in-between our weather recording intervals... More about our weather records

Advertising

Erie weather history for previous 24 hours

 ConditionsComfort  
Time TempWeatherWind HumidityBarometerVisibility
1:51 AM
Wed, Jul 29
73 °FPassing clouds.5 mph62%29.99 "Hg10 mi
12:51 AM74 °FClear.6 mph57%30.00 "Hg10 mi
11:51 PM
Tue, Jul 28
75 °FClear.No wind58%29.98 "Hg10 mi
10:51 PM76 °FClear.No wind58%29.98 "Hg10 mi
9:51 PM76 °FClear.No wind60%29.98 "Hg10 mi
8:51 PM80 °FSunny.No wind49%29.96 "Hg10 mi
7:51 PM83 °FSunny.6 mph41%29.96 "Hg10 mi
6:51 PM85 °FSunny.8 mph43%29.98 "Hg10 mi
5:51 PM87 °FSunny.7 mph42%29.99 "Hg10 mi
4:51 PM87 °FSunny.9 mph37%29.99 "Hg10 mi
3:51 PM88 °FSunny.8 mph40%30.00 "Hg10 mi
2:51 PM86 °FSunny.7 mph49%30.01 "Hg10 mi
1:51 PM84 °FSunny.12 mph53%30.03 "Hg10 mi
12:51 PM84 °FSunny.7 mph53%30.01 "Hg10 mi
11:51 AM84 °FSunny.9 mph49%30.03 "Hg10 mi
10:51 AM84 °FSunny.5 mph55%30.03 "Hg10 mi
9:51 AM83 °FSunny.3 mph55%30.03 "Hg10 mi
8:51 AM79 °FSunny.No wind58%30.03 "Hg10 mi
7:51 AM73 °FSunny.No wind69%30.03 "Hg10 mi
6:51 AM67 °FClear.5 mph79%30.03 "Hg10 mi
5:51 AM66 °FClear.3 mph78%30.02 "Hg10 mi
4:51 AM66 °FClear.No wind78%30.02 "Hg10 mi
3:51 AM67 °FClear.3 mph76%30.01 "Hg10 mi
Weather by CustomWeather, © 2015

See weather overviewHow to use our weather pages